DW8626 Madrid ES current weather conditions

sailwx.info

Wind from 162

Air temperature 15.6° C
Dewpoint 10.3° C

Last reported at 2018-May-21 00:32 UTC.
Time now 2018-May-21 01:26 UTC

Location: N 40°29' W 003°43'.
View on Google Maps.

See reports from other nearby stations

  
Tides and Currents Weather Stations Pressure Air Temp Water Temp Dewpoint Dewpoint Depression Visibility Wind Speed Wind Dir Waves Ship Positions
date/time (UTC)wind fromknots sea level pressurealtimeterstation pressurevisibilityair tempwater tempwave heightnotes
2018-May-21 01:02 201 15.0
2018-May-21 00:32 162 15.6
2018-May-21 00:02 077 15.6
2018-May-20 23:32 235 16.1
2018-May-20 23:02 079 16.7
2018-May-20 22:32 028 16.7
2018-May-20 22:02 044 16.7
2018-May-20 21:32 064 17.2
2018-May-20 21:02 023 17.8
2018-May-20 20:32 039 18.3
2018-May-20 20:02 050 18.3
2018-May-20 19:32 033 18.3
2018-May-20 19:02 023 19.4
2018-May-20 18:32 050 19.4
2018-May-20 18:02 060 19.4
2018-May-20 17:32 057 20.0
2018-May-20 17:02 073 20.6
2018-May-20 16:32 003 21.1
2018-May-20 16:02 307 20.6
2018-May-20 15:02 105 20.6
2018-May-20 14:32 030 20.0
2018-May-20 14:02 100 20.0
2018-May-20 13:32 113 0 gusting 6 19.4
2018-May-20 13:02 126 18.9
2018-May-20 12:32 083 18.3
2018-May-20 12:02 074 17.8
2018-May-20 11:32 074 18.3
2018-May-20 11:02 070 20.6
2018-May-20 10:32 148 20.0
2018-May-20 10:02 148 19.4
2018-May-20 09:32 105 18.9
2018-May-20 09:02 020 17.8
2018-May-20 08:32 120 18.3
2018-May-20 08:02 102 17.2
2018-May-20 07:32 068 16.1
2018-May-20 07:02 044 15.6
2018-May-20 06:32 014 13.3
2018-May-20 06:02 049 12.8
2018-May-20 05:32 041 12.8
2018-May-20 05:02 036 12.8
2018-May-20 04:32 030 12.8
2018-May-20 04:02 098 13.3
2018-May-20 03:32 068 13.9
2018-May-20 03:02 035 0 gusting 5 13.9
2018-May-20 02:32 012 13.9
2018-May-20 02:02 077 13.9
2018-May-20 01:32 357 14.4
2018-May-20 01:02 050 15.0
2018-May-20 00:32 089 0 gusting 7 15.6
2018-May-20 00:02 059 2 gusting 15 16.1
2018-May-19 23:32 043 2 gusting 8 17.2
2018-May-19 23:02 006 17.2
2018-May-19 22:32 202 17.8
2018-May-19 22:02 195 17.8
2018-May-19 21:32 229 18.3
2018-May-19 21:02 236 18.3
2018-May-19 20:32 160 18.9
2018-May-19 20:02 225 20.0
2018-May-19 19:32 321 20.6
2018-May-19 19:02 351 20.6
2018-May-19 18:32 013 20.6
2018-May-19 18:02 084 20.6
2018-May-19 17:32 311 21.1
2018-May-19 17:02 355 21.1
2018-May-19 16:32 012 21.7
2018-May-19 16:02 335 2 gusting 9 21.1
2018-May-19 15:32 285 21.1
2018-May-19 15:02 266 20.6
2018-May-19 14:32 349 0 gusting 6 20.0
2018-May-19 14:02 335 8 gusting 16 19.4
2018-May-19 13:32 008 7 gusting 19 20.6
2018-May-19 13:02 305 22.2
2018-May-19 12:32 233 21.7
2018-May-19 12:02 201 22.2
2018-May-19 11:32 095 22.2
2018-May-19 11:02 117 21.7
2018-May-19 10:32 093 20.6
2018-May-19 10:02 352 19.4
2018-May-19 09:32 124 19.4
2018-May-19 09:02 351 18.3
2018-May-19 08:32 155 18.9
2018-May-19 08:02 347 17.2
2018-May-19 07:32 098 17.2
2018-May-19 07:02 096 14.4
2018-May-19 06:32 041 13.9
2018-May-19 06:02 039 13.9
2018-May-19 05:32 023 13.3
2018-May-19 05:02 055 13.3
2018-May-19 04:32 060 13.3
2018-May-19 04:02 047 13.3
2018-May-19 03:32 009 13.3
2018-May-19 03:02 019 13.9
2018-May-19 02:32 040 13.9
2018-May-19 02:02 023 13.9
2018-May-19 01:02 026 13.9